www.pogodaiklimat.ru

Погода и климат >> Архив погоды >> Гренландия >> Paamiut


ПОГОДА в Paamiut

  • Прогноз погоды в Paamiut
  • Монитор погоды в Paamiut

АРХИВ ПОГОДЫ в Paamiut

Время (UTC), дата Ветер
(напр.,м/с)
 
Видим.   Явления Облачность Т
(С)
Тd
(С)
f
(%)
Тe
(С)
Тes
(С)
Комфортность P
(гПа)
Po
(гПа)
Тmin
(С)
Tmax
(С)
R
(мм)
R24
(мм)
S
(см)
22 18.05 СЗ 5 2300 м ливневой дождь {морось} 9/9 30 м
[]
+1.8 +0.5 91 -4 -4 1018.7 1013.9
23 18.05 С 3 45 км {ливн. осадки, морось} 9/9 30 м
[]
+3.2 +2.0 92 -1 -1 1018.7 1014.0
00 19.05 СЗ 5 21 км 9/9 60 м
[]
+1.5 +0.3 92 -4 -4 1018.8 1014.0
01 19.05 СЗ 5 10 км 9/9 90 м
[]
+1.2 +0.5 95 -5 -5 1019.0 1014.2
02 19.05 СЗ 3 200 м дымка 9/9 60 м
[]
+1.3 +0.8 96 -3 -3 1019.0 1014.2
03 19.05 С 2 200 м туман {дымка} 10/10 60 м
[]
+1.4 +0.9 96 -2 -2 1019.1 1014.3
04 19.05 С 1 100 м туман {дымка} 10/10 60 м
[]
+1.4 +1.1 98 +1 +1 1019.2 1014.4
05 19.05 СВ 2 100 м туман {дымка} 10/10 60 м
[]
+1.3 +1.1 99 -2 -2 1019.3 1014.5
06 19.05 С 2 100 м туман ?/? +0.9 +0.7 99 -2 -2 1019.8 1015.0 +0.9 +3.3
07 19.05 штиль 0 100 м туман 10/10 60 м
[]
+1.0 +0.8 99 -0 -0 1020.3 1015.5
08 19.05 С 1 100 м туман 9/9 120 м
[]
+1.2 +1.2 100 -1 -1 1020.4 1015.6
09 19.05 С 1 100 м туман ?/? +1.8 +1.8 100 +1 +1 1020.8 1016.0
10 19.05 100 м туман 10/10 60 м
[]
+2.4 +2.2 99 1021.1 1016.3
11 19.05 С 2 400 м туман 9/9 60 м
[]
+3.4 +3.2 99 +1 +1 1021.3 1016.5
12 19.05 С 2 100 м туман ?/? +2.7 +2.2 97 -1 -1 1021.7 1016.9
13 19.05 СЗ 3 200 м туман 10/10 30 м
[]
+3.1 +2.4 95 -1 -1 1021.7 1016.9
14 19.05 СЗ 3 200 м туман 10/10 30 м
[]
+3.6 +2.2 91 -0 -0 1021.6 1016.9
15 19.05 С 3 18 км в посл. час туман 9/9 1500 м
[]
+3.7 +1.8 87 0 +1 1021.5 1016.8
16 19.05 СЗ 3 1400 м туман 5/5 1500 м
[]
+3.9 +1.4 84 0 +5 1021.3 1016.6
17 19.05 СЗ 4 100 м туман {осадки} 8/8 30 м
[]
+3.8 +1.2 83 -1 +1 1021.2 1016.5
18 19.05 СЗ 5 100 м туман ?/? +3.4 +1.5 87 -2 -2 1021.3 1016.5 +0.9 +4.6
19 19.05 СЗ 5 200 м слаб. переохл. морось (гололёд) 9/9 60 м
[]
+2.4 +0.7 89 -3 -3 1021.3 1016.5
20 19.05 СЗ 5 25 км слаб. переохл. морось (гололёд) 8/8 60 м
[]
+2.9 +1.2 89 -2 -2 1021.3 1016.5
21 19.05 СЗ 6 4800 м {ливн. осадки, морось} 6/6 60 м
[]
+2.5 +0.4 86 -3 -3 1021.2 1016.4
22 19.05 СЗ 6 100 м туман {ливн. осадки} 10/10 60 м
[]
+1.3 +0.3 93 -5 -5 1021.1 1016.3
23 19.05 СЗ 6 100 м туман {ливн. осадки} 10/10 60 м
[]
+0.8 +0.1 95 -6 -6 1021.2 1016.4
00 20.05 СЗ 5 100 м туман ?/? +0.6 +0.3 98 -6 -6 1021.1 1016.3
01 20.05 СЗ 5 100 м туман 10/10 60 м
[]
+0.5 +0.5 100 -6 -6 1021.0 1016.2
02 20.05 СЗ 3 100 м туман 10/10 60 м
[]
+0.6 +0.6 100 -4 -4 1020.9 1016.1
03 20.05 С 2 100 м туман ?/? +0.8 +0.8 100 -2 -2 1020.6 1015.8
04 20.05 100 м туман 10/10 60 м
[]
+0.6 +0.6 100 1020.5 1015.7
05 20.05 С 1 100 м туман 10/10 60 м
[]
+0.3 +0.3 100 -1 -1 1020.6 1015.8
06 20.05 С 2 100 м туман ?/? +0.4 +0.4 100 -3 -3 1020.6 1015.8 +0.2 +3.6
07 20.05 С 2 100 м туман 10/10 60 м
[]
+0.4 +0.4 100 -4 -4 1020.7 1015.9
08 20.05 СЗ 2 100 м туман 10/10 60 м
[]
+0.2 +0.2 100 -3 -3 1020.9 1016.1
09 20.05 С 1 100 м туман ?/? +0.6 +0.6 100 -2 -2 1021.1 1016.3
10 20.05 С 2 100 м туман 10/10 60 м
[]
+0.4 +0.4 100 -3 -3 1021.3 1016.5
11 20.05 С 2 200 м туман 9/9 60 м
[]
+1.2 +1.2 100 -2 -1 1021.2 1016.4
12 20.05 С 2 400 м туман н/о +2.1 +2.1 100 -2 -2 1021.1 1016.3
13 20.05 СЗ 4 1200 м в посл. час туман н/о +2.9 +2.9 100 -2 -2 1021.3 1016.5
14 20.05 СЗ 3 600 м туман н/о +3.6 +3.6 100 -1 -1 1021.2 1016.5
15 20.05 СЗ 4 200 м туман ?/? +3.7 +3.7 100 -1 -1 1021.3 1016.6
16 20.05 СЗ 5 500 м туман 8/8 30 м
[]
+3.7 +3.5 99 -1 0 1021.0 1016.3
17 20.05 СЗ 5 300 м слаб. переохл. морось (гололёд) 8/8 30 м
[]
+3.4 +2.0 91 -2 -1 1020.9 1016.2
18 20.05 СЗ 6 300 м слаб. переохл. морось (гололёд) 9/9 30 м
[]
+3.3 +1.8 90 -3 -2 1021.1 1016.3 -0.2 +4.2
19 20.05 СЗ 7 200 м слаб. переохл. морось (гололёд) 9/9 30 м
[]
+2.8 +1.4 90 -3 -3 1020.9 1016.1
20 20.05 СЗ 7 100 м слаб. переохл. морось (гололёд) 9/9 30 м
[]
+2.2 +1.2 93 -4 -4 1020.8 1016.0
21 20.05 СЗ 7 200 м туман {ливн. осадки} 9/9 30 м
[]
+1.6 +0.9 95 -5 -5 1020.7 1015.9
22 20.05 СЗ 7 100 м туман {ливн. осадки} 10/10 60 м
[]
+1.2 +0.9 98 -6 -6 1020.7 1015.9
23 20.05 СЗ 7 100 м туман {ливн. осадки} 10/10 60 м
[]
+0.8 +0.8 100 -6 -6 1020.6 1015.8
00 21.05 СЗ 7 100 м туман ?/? +0.7 +0.7 100 -6 -6 1020.7 1015.9
01 21.05 СЗ 5 100 м туман 10/10 60 м
[]
+0.8 +0.8 100 -5 -5 1020.7 1015.9
02 21.05 СЗ 4 100 м туман 10/10 60 м
[]
+0.7 +0.7 100 -5 -5 1020.5 1015.7
03 21.05 С 4 100 м туман ?/? +0.7 +0.7 100 -5 -5 1020.2 1015.4
04 21.05 С 3 100 м туман 10/10 60 м
[]
+0.6 +0.6 100 -4 -4 1020.0 1015.2
05 21.05 С 2 100 м туман 10/10 60 м
[]
+0.4 +0.4 100 -4 -4 1019.9 1015.1
06 21.05 СЗ 2 100 м туман ?/? +0.1 +0.1 100 -4 -4 1020.2 1015.4 +0.1 +3.4
07 21.05 С 2 100 м туман 10/10 60 м
[]
+0.3 +0.3 100 -3 -3 1020.1 1015.3
08 21.05 С 1 100 м туман 10/10 60 м
[]
0.0 0.0 100 -1 -1 1020.3 1015.5
09 21.05 С 1 100 м туман ?/? +0.6 +0.6 100 -0 -0 1020.5 1015.7
10 21.05 С 2 100 м туман 10/10 60 м
[]
+0.5 +0.5 100 -3 -3 1020.7 1015.9
11 21.05 СЗ 3 100 м туман 10/10 60 м
[]
+0.9 +0.9 100 -3 -3 1020.9 1016.1
12 21.05 СЗ 3 100 м туман ?/? +1.3 +1.3 100 -3 -3 1021.3 1016.5
13 21.05 СЗ 3 400 м туман {осадки} 9/9 60 м
[]
+2.2 +2.2 100 -2 -2 1021.2 1016.4
14 21.05 СЗ 4 300 м слаб. переохл. морось (гололёд) 9/9 60 м
[]
+2.9 +2.9 100 -2 -1 1021.2 1016.4
15 21.05 СЗ 4 500 м ливневой дождь {морось} н/о +3.4 +3.4 100 -2 -2 1021.0 1016.2
16 21.05 СЗ 5 400 м слаб. переохл. морось (гололёд) 4/4 30 м
[]
+3.4 +3.4 100 -2 +3 1020.8 1016.1
17 21.05 СЗ 5 1000 м слаб. переохл. морось (гололёд) 1/1 90 м
[]
+3.7 +2.0 89 -1 +5 1020.7 1016.0
18 21.05 СЗ 6 500 м слаб. переохл. морось (гололёд) 9/9 30 м
[]
+3.1 +1.2 87 -3 -2 1021.0 1016.2 -0.2 +4.2
19 21.05 СЗ 7 100 м слаб. переохл. морось (гололёд) 9/9 30 м
[]
+2.8 +1.3 90 -3 -3 1020.8 1016.0
20 21.05 СЗ 7 100 м слаб. переохл. морось (гололёд) 10/10 30 м
[]
+2.3 +1.1 92 -4 -4 1020.7 1015.9
21 21.05 СЗ 8 9000 м слаб. ливневой снег {морось} 6/6 30 м
[]
+3.7 +2.3 91 -3 -2 1020.4 1015.7
22 21.05 СЗ 7 11 км {ливн. осадки, морось} н/о +3.2 +1.3 87 -3 -3 1020.4 1015.6
23 21.05 СЗ 5 12 км {ливн. осадки, морось} н/о +2.8 +1.3 90 -3 -3 1020.4 1015.6
00 22.05 СЗ 6 8000 м дымка н/о +1.8 +0.8 93 -5 -5 1020.4 1015.6
01 22.05 СЗ 5 9000 м н/о +1.6 +1.1 96 -4 -4 1020.4 1015.6
02 22.05 С 2 10 км н/о +1.3 +1.0 98 -2 -2 1020.3 1015.5
03 22.05 СЗ 4 9000 м н/о +1.4 +1.1 98 -4 -4 1019.7 1014.9
04 22.05 С 1 10 км н/о +0.9 +0.7 99 0 0 1019.5 1014.7
05 22.05 С 1 9000 м н/о +1.1 +0.9 99 -1 -1 1019.2 1014.4
06 22.05 СЗ 3 6000 м дымка н/о +1.1 +0.9 99 -3 -3 1019.0 1014.2 +0.7 +3.9
07 22.05 С 3 7000 м дымка н/о +1.1 +0.9 99 -3 -3 1019.0 1014.2
08 22.05 С 1 10 км н/о +1.8 +1.6 99 -0 -0 1018.9 1014.1
09 22.05 СЗ 3 10 км н/о +1.7 +1.4 98 -3 -3 1018.9 1014.1
10 22.05 СЗ 3 16 км н/о +2.7 +2.2 97 -2 -2 1018.9 1014.1
11 22.05 СЗ 3 17 км н/о +3.4 +1.9 90 -1 -1 1018.7 1014.0
12 22.05 СЗ 3 21 км н/о +4.4 +1.6 82 +1 +1 1018.8 1014.1
13 22.05 СЗ 4 17 км н/о +4.2 +1.5 83 -0 -0 1018.5 1013.8
14 22.05 СЗ 4 35 км н/о +4.6 +1.7 81 0 0 1018.5 1013.8
15 22.05 СЗ 5 25 км н/о +4.7 +1.8 81 0 0 1018.4 1013.7
16 22.05 СЗ 4 27 км н/о +5.4 +1.9 78 +1 +1 1018.5 1013.8
17 22.05 СЗ 4 28 км н/о +5.3 +1.4 76 +2 +2 1018.1 1013.4
18 22.05 СЗ 5 26 км н/о +6.1 +2.6 78 +2 +2 1018.1 1013.4 +0.9 +6.4
19 22.05 СЗ 5 24 км н/о +4.7 +1.8 81 -0 -0 1018.2 1013.5
20 22.05 СЗ 5 28 км н/о +4.4 +1.7 83 -0 -0 1018.0 1013.3
21 22.05 СЗ 4 12 км 3/0
[]
+4.0 +1.5 84 -1 +1 1018.2 1013.5
22 22.05 СЗ 4 35 км н/о +4.0 +1.7 85 -1 -1 1018.2 1013.5
23 22.05 СЗ 4 300 м слаб. переохл. морось (гололёд) 6/6 30 м
[]
+2.2 +1.2 93 -3 -3 1018.4 1013.6
00 23.05 СЗ 4 100 м туман {ливн. осадки} 9/9 30 м
[]
+1.3 +0.8 96 -4 -4 1018.8 1014.0
01 23.05 СЗ 3 3700 м в посл. час туман 9/9 60 м
[]
+1.3 +1.0 98 -3 -3 1018.8 1014.0
02 23.05 С 3 2200 м туман 9/9 30 м
[]
+1.2 +1.0 99 -3 -3 1018.6 1013.8
03 23.05 С 3 100 м туман ?/? +0.8 +0.8 100 -4 -4 1018.8 1014.0
04 23.05 СЗ 2 100 м туман 10/10 60 м
[]
+0.8 +0.8 100 -3 -3 1018.9 1014.1
05 23.05 СЗ 3 100 м туман 10/10 60 м
[]
+0.7 +0.7 100 -4 -4 1019.1 1014.3
06 23.05 С 1 100 м туман ?/? +0.8 +0.8 100 0 0 1019.2 1014.4 +0.6 +6.5
07 23.05 С 1 100 м туман 10/10 30 м
[]
+1.1 +1.1 100 -1 -1 1019.3 1014.5
08 23.05 С 1 100 м туман 9/9 90 м
[]
+1.4 +1.4 100 -1 -1 1019.3 1014.5
09 23.05 штиль 0 300 м туман ?/? +2.5 +2.5 100 +1 +1 1019.2 1014.4
10 23.05 40 км в посл. час туман н/о +4.2 +4.0 99 1018.9 1014.2
11 23.05 С 1 35 км {туман} 3/0
[]
+6.1 +3.0 80 +5 +11 1018.7 1014.0
12 23.05 СЗ 5 40 км н/о +4.3 +1.6 83 -0 -0 1018.5 1013.8
13 23.05 СЗ 4 300 м слаб. переохл. морось (гололёд) 3/3 60 м
[]
+3.6 +1.9 89 -1 +5 1018.4 1013.7
14 23.05 СЗ 4 2800 м в посл. час переохл. осадки (гололёд) {морось} н/о +4.5 +1.5 81 0 0 1018.1 1013.4
15 23.05 СЗ 5 200 м туман {ливн. осадки} 3/3 60 м
[]
+4.3 +1.8 84 -0 +5 1017.7 1013.0
16 23.05 СЗ 5 600 м слаб. переохл. морось (гололёд) 1/1 60 м
[]
+4.6 +1.7 81 -0 +6 1017.4 1012.7
17 23.05 СЗ 5 12 км в посл. час переохл. осадки (гололёд) {морось} н/о +5.2 +1.5 77 +1 +1 1016.9 1012.2
18 23.05 СЗ 5 900 м слаб. переохл. морось (гололёд) н/о +4.9 +2.2 83 0 0 1016.9 1012.2 +0.8 +6.3
19 23.05 СЗ 4 24 км {морось} 1/0
[]
+5.5 +1.8 77 +2 +7 1016.5 1011.8
20 23.05 СЗ 4 35 км {морось} 6/0
[]
+4.4 +1.9 84 0 +3 1016.4 1011.7
21 23.05 СЗ 3 35 км {морось} н/о +4.7 +2.2 84 +1 +1 1015.9 1011.2
22 23.05 СЗ 3 25 км {морось} н/о +4.1 +2.0 86 +1 +1 1015.7 1011.0
23 23.05 СЗ 3 21 км {морось} н/о +3.2 +1.8 91 -1 -1 1015.3 1010.6
00 24.05 СЗ 3 25 км н/о +2.9 +1.7 92 -1 -1 1014.9 1010.2
01 24.05 СЗ 4 30 км н/о +2.1 +1.4 95 -3 -3 1014.7 1010.0
02 24.05 С 2 18 км н/о +1.9 +1.6 98 -2 -2 1014.5 1009.8
03 24.05 С 2 5000 м 1/0
[]
+1.9 +1.7 99 -2 -2 1014.0 1009.3
04 24.05 С 2 8000 м 9/0
[]
+2.2 +2.0 99 -1 -1 1013.7 1009.0
05 24.05 С 1 26 км 10/0
[]
+2.7 +2.5 99 +1 +1 1013.4 1008.7
06 24.05 С 1 13 км 9/0 2000 м
[]
+2.7 +2.5 99 +1 +1 1013.2 1008.5 +1.8 +6.1
07 24.05 штиль 0 40 км 9/0
[]
+3.2 +3.0 99 +2 +2 1012.7 1008.0
08 24.05 30 км 10/0
[]
+3.8 +3.3 97 1012.5 1007.8
09 24.05 С 1 30 км 9/0
[]
+5.2 +3.8 91 +5 +6 1012.4 1007.7
10 24.05 35 км 9/0
[]
+6.0 +4.0 87 1012.3 1007.6
11 24.05 штиль 0 30 км 9/0
[]
+6.7 +3.6 81 +6 +10 1012.3 1007.6
12 24.05 С 1 8000 м 9/0
[]
+5.5 +3.4 86 +5 +11 1012.3 1007.6
13 24.05 С 2 24 км 9/0
[]
+5.6 +2.7 82 +4 +10 1012.0 1007.3
14 24.05 С 1 30 км 9/0
[]
+8.2 +3.6 73 +8 +15 1011.8 1007.2
15 24.05 С 1 30 км 9/0
[]
+10.8 +4.0 63 +12 +21 1011.6 1007.0
16 24.05 С 1 40 км 8/0
[]
+11.1 +3.1 58 +12 +22 1011.1 1006.5
17 24.05 С 2 35 км 8/0
[]
+12.4 +2.9 52 +12 +20 1010.8 1006.2
18 24.05 С 2 30 км 9/0
[]
+10.6 +2.6 58 +10 +15 1010.5 1005.9 +2.6 +12.5
19 24.05 С 2 45 км 9/0
[]
+8.8 +2.4 64 +7 +11 1010.3 1005.7
20 24.05 СЗ 2 40 км 9/0
[]
+10.0 +2.3 59 +9 +11 1010.1 1005.5
21 24.05 СЗ 3 40 км 10/0
[]
+7.3 +2.7 73 +5 +6 1009.4 1004.8
22 24.05 СЗ 4 35 км 3/0
[]
+7.4 +2.8 73 +4 +5 1008.9 1004.3
23 24.05 СЗ 3 25 км 9/0
[]
+6.4 +2.5 76 +3 +4 1008.5 1003.9
00 25.05 С 2 19 км 10/0
[]
+5.1 +2.2 82 +3 +3 1008.6 1003.9
01 25.05 СЗ 2 17 км 9/0
[]
+4.0 +1.9 86 +2 +2 1008.6 1003.9
02 25.05 35 км 9/0
[]
+4.6 +2.9 89 1008.1 1003.4
03 25.05 С 2
{13}
30 км 10/0
[]
+6.2 +2.7 78 +4 +4 1007.8 1003.2
04 25.05 С 1 40 км 9/0
[]
+4.7 +2.4 85 +5 +5 1007.5 1002.8
05 25.05 С 1 45 км 10/0
[]
+6.7 +3.0 77 +6 +6 1006.9 1002.3
06 25.05 С 1
{13}
40 км 10/0
[]
+6.9 +2.4 73 +6 +6 1007.2 1002.6 +3.9 +12.3
07 25.05 С 2 45 км 8/0
[]
+7.6 +1.5 65 +6 +6 1007.5 1002.9
08 25.05 С 1 50 км 8/0
[]
+8.3 +1.2 61 +8 +8 1007.5 1002.9
09 25.05 С 1 30 км 9/0
[]
+6.1 +1.4 72 +5 +6 1008.0 1003.4
10 25.05 С 1 35 км 10/0
[]
+9.1 +1.9 61 +9 +11 1008.2 1003.6
11 25.05 С 2 30 км 10/0
[]
+12.7 -0.6 40 +13 +16 1008.2 1003.7
12 25.05 С 2 45 км 3/0
[]
+14.7 -2.7 30 +15 +22 1008.4 1003.9
13 25.05 СЗ 3 45 км 3/0
[]
+15.2 -3.2 28 +15 +22 1008.5 1004.0
14 25.05 СЗ 3 40 км н/о +15.1 -2.8 29 +15 +15 1008.9 1004.4
15 25.05 СЗ 4 21 км н/о +7.4 +1.5 66 +4 +4 1008.9 1004.3
16 25.05 С 2 30 км н/о +9.9 +0.9 53 +9 +9 1009.0 1004.4
18 25.05 штиль 0 50 км н/о +13.3 -1.5 36 +13 +13 1009.2 1004.7 +6.1 +17.2
19 25.05 штиль 0 45 км 10/0
[]
+12.2 +0.3 44 +12 +17 1009.5 1004.9
20 25.05 штиль 0 45 км 10/0
[]
+10.8 +1.4 52 +11 +14 1009.9 1005.3
21 25.05 С 1 40 км 10/0
[]
+10.3 +1.2 53 +11 +13 1009.9 1005.3
22 25.05 С 1 30 км 10/0 2000 м
[]
+7.7 +1.8 66 +7 +8 1010.2 1005.6

 

Местоположение метеостанции Paamiut (Гренландия): широта 62.00 долгота -49.66 высота над уровнем моря 15 м.

В архиве по умолчанию представлена погода в Paamiut за последнюю неделю. Архивные данные за месяц целиком и за предыдущие месяцы, начиная с января 2011 года, Вы можете получить, выбрав интересующий диапазон дат из раскрывающегося списка и нажав кнопку "Ввод!".


*Определитесь, кто Вы:
робот инопланетянин человек

Внимание! Время в таблицах - всемирное. Для получения местного времени необходимо прибавить поправку, которая равна -3 ч.

Смотрите также архив погоды в соседних городах и на ближайших метеорологических станциях:

Погода в Ukiivik (Гренландия) (74 км)
Погода в Nunarsuit (Гренландия) (152 км)
Погода в Qaqortoq (Гренландия) (239 км)
Погода в Narsarsuaq (Гренландия) (244 км)
Погода в Nuuk (Гренландия) (263 км)
Погода в Mittarfik Nuuk (Гренландия) (265 км)
Погода в Angisoq (Гренландия) (329 км)
Погода в Sioralik (Гренландия) (365 км)
Погода в Ikermiuarsuk (Гренландия) (397 км)
Погода в Prins Christian Sun (Гренландия) (412 км)

Пояснения к столбцам:

Ветер - указаны скорость ветра в м/с - средняя за 10 мин, порывы в срок и между сроками (в фигурных скобках) и направление, откуда дует ветер: С - северный, СВ - северо-восточный, В - восточный, ЮВ - юго-восточный, Ю - южный, ЮЗ - юго-западный, З - западный, СЗ - северо-западный.
Видимость - горизонтальная дальность видимости в метрах или километрах. При видимости от 1 до 10 км при отсутствии осадков обычно наблюдается дымка, при ухудшении видимости до 1 км и менее - туман. В сухую погоду видимость может ухудшаться дымом, пылью или мглою.
Явления - указаны атмосферные явления, наблюдавшиеся в срок или в последний час перед сроком; фигурными скобками обозначены явления, наблюдавшиеся между сроками (за 1-3 часа до срока); квадратными скобками обозначены град или гололедные отложения с указанием их диаметра в мм.
Облачность - указаны через наклонную черту общая и нижняя облачность в баллах и высота нижней границы облаков в метрах; квадратными скобками обозначены формы облаков: Ci - перистые, Cs - перисто-слоистые, Cc - перисто-кучевые, Ac - высококучевые, As - высокослоистые, Sc - слоисто-кучевые, Ns - слоисто-дождевые, Cu - кучевые, Cb - кучево-дождевые. Подробнее классификацию облаков см. в Атласе облаков (PDF).
T - Температура воздуха - температура, измеренная на высоте 2 м над землей.
Td - Температура точки росы - температура, при понижении до которой содержащийся в воздухе водяной пар достигнет насыщения.
f - Относительная влажность воздуха - влажноcть воздуха, измеренная на высоте 2 м над землей.
Te - Эффективная температура - температура, которую ощущает одетый по сезону человек в тени. Характеристика душности погоды. При расчете учитывается влияние влажности воздуха и скорости ветра на теплоощущения человека.
Tes - Эффективная температура на солнце - температура, которую ощущает человек, с поправкой на солнечный нагрев. Характеристика знойности погоды. Зависит от высоты солнца над горизонтом, облачности и скорости ветра. Ночью, в пасмурную погоду, а также при ветре 12 м/с и более поправка равна нулю.
P - Атмосферное давление - приведенное к уровню моря атмосферное давление.
Po - Атмосферное давление - измеренное на уровне метеостанции атмосферное давление.
Tmin - Минимальная температура - минимум температуры воздуха на высоте 2 м над землей.
Tmax - Максимальная температура - максимум температуры воздуха на высоте 2 м над землей.
R - Количество осадков - Количество выпавших осадков за период времени, мм. При наведении курсора мыши на число - период времени, за который выпало указанное количество осадков.
R24 - Количество осадков - Количество выпавших осадков за 24 часа, мм.
S - Снежный покров - Высота снежного покрова, см. При наведении курсора мыши на число - состояние снежного покрова и степень покрытия местности в баллах.